{"data":{"norad_id":55628,"intl_designator":"2023-021A","name":"STARLINK-5484","alt_names":[],"object_type":"PAYLOAD","status":"ACTIVE","operator":null,"country":"US","launch_date":"2023-02-17","launch_site_code":"AFWTR","launch_vehicle":null,"mission":null,"orbit_class":"UNKNOWN","rcs_meters":null,"size_class":null,"mass_kg":null,"dimensions":null,"purposes":["comms"],"wikipedia_slug":null,"has_3d_model":false,"image_url":null,"decayed_at":null,"tle_current":{"epoch":"2026-09-20T22:00:03.000096Z","epoch_age_seconds":67115,"freshness":"FRESH","line1":"1 55628U 23021A   26263.91670139  .00075911  00000+0  51933-2 0  9994","line2":"2 55628  70.0014  72.2407 0005353 283.9738 341.0044 15.05671320  5560","mean_motion":15.0567132,"eccentricity":0.0005353,"inclination_deg":70.0014,"raan_deg":72.2407,"arg_perigee_deg":283.9738,"mean_anomaly_deg":341.0044,"bstar":0.0051933,"rev_number":556,"period_min":95.63840267609,"perigee_km":545.73742277422,"apogee_km":553.15409287474,"semimajor_km":6927.5827578245,"source":"CELESTRAK","updated_at":"2026-09-21T09:00:33.278573Z"}}}